Tracking 28529 objects as of 25-Feb-2024
HD Live streaming from Space Station
objects crossing your sky now

ANIK F2

Track ANIK F2 now!
ANIK F2 is classified as:


NORAD ID: 28378
Int'l Code: 2004-027A
Perigee: 35,785.7 km
Apogee: 35,801.2 km
Inclination: 1.1 °
Period: 1,436.1 minutes
Semi major axis: 42164 km
RCS: 28.1838 m2 (large)
Launch date: July 18, 2004
Source: Canada (CA)
Launch site: FRENCH GUIANA (FRGUI)

24 30W C-band, 40 127W Ku-band, 50 90W transponders for broadband and telemedicine to northern US states and Canada
Your satellite tracking list
Your tracking list is empty




NASA's NSSDC Master Catalog

Two Line Element Set (TLE):
1 28378U 04027A   24055.55991132 -.00000053  00000-0  00000-0 0  9991
2 28378   1.0966  90.4119 0001839 275.7227 238.2439  1.00272911 32806
Source of the keplerian elements: AFSPC